Simultaneous Nadir Overpasses (SNOs) Predictions

Prediction of SNOs between AQUA and GOES-15 Satellite Orbit:

Table of predicted SNOs for the next 14.0 days since TLE Epoch: 5/25/2024
Index Date Time (AQUA) AQUA Lat,Lon GOES-15 Lat,Lon Distance(km) Time Diff (sec)
1 05/25/2024 21:46:17 -0.86, 65.53 -0.03, 61.69 437.07 80
2 05/26/2024 10:06:35 -0.20, 60.62 0.05, 61.65 118.20 80
3 05/28/2024 09:50:07 0.66, 64.65 0.04, 61.62 343.30 80
4 05/28/2024 22:10:16 0.37, 59.77 -0.06, 61.64 213.76 80
5 05/30/2024 21:53:47 -0.49, 63.80 -0.05, 61.61 248.09 80
6 05/31/2024 10:14:05 -0.52, 58.88 0.07, 61.58 307.08 80
7 06/02/2024 09:57:35 0.35, 62.91 0.07, 61.55 154.88 80
8 06/02/2024 22:17:44 0.64, 58.03 -0.09, 61.57 402.07 80
9 06/04/2024 22:01:12 -0.18, 62.08 -0.09, 61.55 59.65 80
10 06/05/2024 10:21:29 -0.80, 57.16 0.11, 61.52 495.70 80
11 06/07/2024 10:04:56 0.03, 61.21 0.11, 61.51 34.16 80
